When you browse on this site, cookies collect data to enhance your experience and personalize the content and advertising you see.
Visit our Privacy Policy to learn more. By continuing to use the site, you agree to this use of cookies and data.
  • In Spain
  • List of Countries
  • For 7 days
  • Water Temperature
  • Weather Map
  • Weather Widgets
  • user-avatar
    Login

    Hourly Weather Kostanaj

    Today, 20 September, Friday

    Time Temperature Precipitation Wind Pressure Humidity
    00:00 +8°C° 0 mm 9 mps 740 mmHg 64%
    01:00 +9°C° 0 mm 8 mps 741 mmHg 66%
    02:00 +9°C° 0 mm 7 mps 742 mmHg 69%
    03:00 +8°C° 0 mm 7 mps 742 mmHg 72%
    04:00 +8°C° 0 mm 7 mps 743 mmHg 74%
    05:00 +8°C° 0 mm 7 mps 744 mmHg 74%
    06:00 +8°C° 0 mm 7 mps 744 mmHg 73%
    07:00 +8°C° 0 mm 7 mps 744 mmHg 72%
    08:00 +10°C° 0 mm 7 mps 745 mmHg 66%
    09:00 +11°C° 0 mm 7 mps 745 mmHg 60%
    10:00 +12°C° 0 mm 7 mps 746 mmHg 54%
    11:00 +14°C° 0.1 mm 7 mps 746 mmHg 53%
    12:00 +13°C° 0.1 mm 8 mps 746 mmHg 51%
    13:00 +15°C° 0.1 mm 8 mps 745 mmHg 50%
    14:00 +13°C° 0 mm 8 mps 746 mmHg 50%
    15:00 +13°C° 0 mm 8 mps 746 mmHg 50%
    16:00 +14°C° 0 mm 7 mps 746 mmHg 50%
    17:00 +11°C° 0 mm 6 mps 747 mmHg 54%
    18:00 +11°C° 0 mm 4 mps 747 mmHg 57%
    19:00 +10°C° 0 mm 3 mps 748 mmHg 60%
    20:00 +10°C° 0 mm 2 mps 748 mmHg 61%
    21:00 +9°C° 0 mm 2 mps 748 mmHg 63%
    22:00 +9°C° 0 mm 2 mps 748 mmHg 64%
    23:00 +9°C° 0 mm 2 mps 748 mmHg 66%

    Tomorrow, 21 September, Saturday

    Time Temperature Precipitation Wind Pressure Humidity
    00:00 +8°C° 0 mm 2 mps 749 mmHg 68%
    01:00 +8°C° 0 mm 2 mps 749 mmHg 70%
    02:00 +8°C° 0 mm 2 mps 749 mmHg 70%
    03:00 +8°C° 0 mm 2 mps 749 mmHg 71%
    04:00 +8°C° 0 mm 2 mps 749 mmHg 72%
    05:00 +8°C° 0 mm 2 mps 749 mmHg 71%
    06:00 +9°C° 0 mm 2 mps 749 mmHg 69%
    07:00 +9°C° 0 mm 2 mps 748 mmHg 68%
    08:00 +12°C° 0 mm 2 mps 748 mmHg 63%
    09:00 +12°C° 0 mm 3 mps 748 mmHg 57%
    10:00 +14°C° 0 mm 3 mps 748 mmHg 52%
    11:00 +13°C° 0.5 mm 3 mps 747 mmHg 59%
    12:00 +12°C° 0.5 mm 4 mps 747 mmHg 66%
    13:00 +11°C° 0.5 mm 4 mps 746 mmHg 74%
    14:00 +11°C° 0.9 mm 4 mps 746 mmHg 78%
    15:00 +10°C° 0.9 mm 4 mps 746 mmHg 82%
    16:00 +8°C° 0.9 mm 4 mps 745 mmHg 87%
    17:00 +8°C° 0.6 mm 5 mps 744 mmHg 87%
    18:00 +8°C° 0.6 mm 6 mps 743 mmHg 88%
    19:00 +8°C° 0.6 mm 7 mps 741 mmHg 88%
    20:00 +8°C° 0.9 mm 7 mps 740 mmHg 89%
    21:00 +8°C° 0.9 mm 7 mps 738 mmHg 90%
    22:00 +9°C° 0.9 mm 7 mps 736 mmHg 90%
    23:00 +9°C° 0.1 mm 6 mps 735 mmHg 90%

    Day after tomorrow, 22 September, Sunday

    Time Temperature Precipitation Wind Pressure Humidity
    00:00 +9°C° 0.1 mm 6 mps 734 mmHg 89%
    01:00 +9°C° 0.1 mm 5 mps 732 mmHg 89%
    02:00 +9°C° 0 mm 5 mps 732 mmHg 87%
    03:00 +9°C° 0 mm 5 mps 731 mmHg 86%
    04:00 +10°C° 0 mm 5 mps 730 mmHg 85%
    05:00 +9°C° 0.3 mm 5 mps 731 mmHg 85%
    06:00 +9°C° 0.3 mm 6 mps 731 mmHg 86%
    07:00 +8°C° 0.3 mm 6 mps 731 mmHg 87%
    08:00 +8°C° 0 mm 6 mps 731 mmHg 84%
    09:00 +9°C° 0 mm 6 mps 732 mmHg 80%
    10:00 +9°C° 0 mm 6 mps 733 mmHg 77%
    11:00 +9°C° 0.1 mm 6 mps 733 mmHg 74%
    12:00 +10°C° 0.1 mm 7 mps 733 mmHg 71%
    13:00 +10°C° 0.1 mm 8 mps 734 mmHg 68%
    14:00 +10°C° 0.3 mm 7 mps 734 mmHg 69%
    15:00 +9°C° 0.3 mm 6 mps 735 mmHg 70%
    16:00 +9°C° 0.3 mm 5 mps 735 mmHg 71%
    17:00 +8°C° 0 mm 5 mps 736 mmHg 71%
    18:00 +7°C° 0 mm 5 mps 737 mmHg 72%
    19:00 +6°C° 0 mm 5 mps 738 mmHg 73%
    20:00 +5°C° 0 mm 5 mps 738 mmHg 74%
    21:00 +3°C° 0 mm 5 mps 739 mmHg 75%
    22:00 +3°C° 0 mm 5 mps 739 mmHg 75%
    23:00 +4°C° 0 mm 4 mps 739 mmHg 76%

    23 September, Monday

    Time Temperature Precipitation Wind Pressure Humidity
    00:00 +3°C° 0 mm 4 mps 740 mmHg 77%
    01:00 +3°C° 0 mm 4 mps 740 mmHg 79%
    02:00 +3°C° 0 mm 4 mps 740 mmHg 79%
    03:00 +4°C° 0 mm 4 mps 740 mmHg 79%
    04:00 +4°C° 0 mm 4 mps 740 mmHg 79%
    05:00 +3°C° 0 mm 5 mps 740 mmHg 80%
    06:00 +4°C° 0 mm 6 mps 740 mmHg 80%
    07:00 +4°C° 0 mm 6 mps 740 mmHg 80%
    08:00 +5°C° 0 mm 7 mps 739 mmHg 72%
    09:00 +6°C° 0 mm 8 mps 739 mmHg 63%
    10:00 +8°C° 0 mm 9 mps 739 mmHg 55%
    11:00 +7°C° 0.5 mm 9 mps 738 mmHg 61%
    12:00 +7°C° 0.5 mm 10 mps 737 mmHg 67%
    13:00 +7°C° 0.5 mm 10 mps 735 mmHg 74%
    14:00 +7°C° 1.7 mm 11 mps 734 mmHg 77%
    15:00 +8°C° 1.7 mm 11 mps 732 mmHg 81%
    16:00 +8°C° 1.7 mm 12 mps 730 mmHg 84%
    17:00 +7°C° 0.8 mm 11 mps 730 mmHg 81%
    18:00 +6°C° 0.8 mm 11 mps 730 mmHg 77%
    19:00 +3°C° 0.8 mm 11 mps 729 mmHg 73%
    20:00 +3°C° 0.1 mm 11 mps 730 mmHg 73%
    21:00 +3°C° 0.1 mm 12 mps 730 mmHg 73%
    22:00 +2°C° 0.1 mm 12 mps 730 mmHg 73%
    23:00 +2°C° 0 mm 12 mps 731 mmHg 76%

    24 September, Tuesday

    Time Temperature Precipitation Wind Pressure Humidity
    00:00 +2°C° 0 mm 12 mps 732 mmHg 78%
    01:00 +2°C° 0 mm 12 mps 733 mmHg 81%
    02:00 +2°C° 0.1 mm 11 mps 735 mmHg 80%
    03:00 +2°C° 0.1 mm 10 mps 736 mmHg 78%
    04:00 +2°C° 0.1 mm 9 mps 738 mmHg 77%
    05:00 +2°C° 0 mm 9 mps 739 mmHg 76%
    06:00 +1°C° 0 mm 9 mps 740 mmHg 75%
    07:00 +1°C° 0 mm 9 mps 741 mmHg 75%
    08:00 +1°C° 0 mm 9 mps 742 mmHg 69%
    09:00 +2°C° 0 mm 9 mps 743 mmHg 63%
    10:00 +3°C° 0 mm 9 mps 743 mmHg 57%
    11:00 +3°C° 0.1 mm 9 mps 743 mmHg 56%
    12:00 +5°C° 0.1 mm 9 mps 744 mmHg 55%
    13:00 +6°C° 0.1 mm 10 mps 744 mmHg 53%
    14:00 +5°C° 0.2 mm 10 mps 744 mmHg 55%
    15:00 +5°C° 0.2 mm 10 mps 744 mmHg 56%
    16:00 +5°C° 0.2 mm 10 mps 744 mmHg 58%
    17:00 +3°C° 0 mm 9 mps 744 mmHg 60%
    18:00 +2°C° 0 mm 8 mps 745 mmHg 62%
    19:00 +3°C° 0 mm 7 mps 745 mmHg 64%
    20:00 +2°C° 0 mm 7 mps 745 mmHg 66%
    21:00 +2°C° 0 mm 7 mps 746 mmHg 69%
    22:00 +1°C° 0 mm 6 mps 746 mmHg 72%
    23:00 +1°C° 0 mm 6 mps 746 mmHg 73%

    25 September, Wednesday

    Time Temperature Precipitation Wind Pressure Humidity
    00:00 -1°C° 0 mm 6 mps 747 mmHg 74%
    01:00 -1°C° 0 mm 6 mps 747 mmHg 75%
    02:00 -1°C° 0 mm 6 mps 747 mmHg 75%
    03:00 -1°C° 0 mm 6 mps 748 mmHg 75%
    04:00 -2°C° 0 mm 6 mps 748 mmHg 75%
    05:00 -1°C° 0 mm 6 mps 748 mmHg 75%
    06:00 -1°C° 0 mm 7 mps 749 mmHg 74%
    07:00 -1°C° 0 mm 7 mps 749 mmHg 74%
    08:00 0°C° 0 mm 7 mps 749 mmHg 68%
    09:00 +3°C° 0 mm 7 mps 750 mmHg 63%
    10:00 +4°C° 0 mm 7 mps 750 mmHg 57%
    11:00 +5°C° 0 mm 7 mps 750 mmHg 55%
    12:00 +6°C° 0 mm 7 mps 750 mmHg 52%
    13:00 +6°C° 0 mm 7 mps 750 mmHg 49%
    14:00 +6°C° 0 mm 7 mps 750 mmHg 50%
    15:00 +6°C° 0 mm 7 mps 750 mmHg 51%
    16:00 +6°C° 0 mm 7 mps 750 mmHg 52%
    17:00 +5°C° 0 mm 6 mps 750 mmHg 55%
    18:00 +5°C° 0 mm 5 mps 750 mmHg 59%
    19:00 +5°C° 0 mm 3 mps 750 mmHg 63%
    20:00 +4°C° 0 mm 4 mps 751 mmHg 66%
    21:00 +4°C° 0 mm 4 mps 751 mmHg 69%
    22:00 +2°C° 0 mm 5 mps 751 mmHg 71%
    23:00 +3°C° 0 mm 4 mps 751 mmHg 77%
    Show more